GW2011 Weather Reports


Display with metric or nautical units.
time (UTC)temp
F
wind
direction
speed
MPH
gust
MPH
rain 1hr
in
rain 24hr
in
rain mn
in
humidity
%
barometer
mb
20260831052517 74 160 2.0 9.0 0.00 0.00 0.00 89 1003.9
20260831052019 74 119 2.0 10.0 0.00 0.00 0.00 89 1003.7
20260831051544 74 124 4.0 12.0 0.00 0.00 0.00 89 1003.7
20260831051018 74 127 5.0 12.0 0.00 0.00 0.00 89 1003.8
20260831050518 75 131 3.0 10.0 0.00 0.00 0.00 89 1003.9
20260831050037 75 143 4.0 10.0 0.00 0.00 0.00 89 1004.0
20260831045519 75 129 6.0 10.0 0.00 0.00 0.00 88 1004.0
20260831045020 75 128 4.0 10.0 0.00 0.00 0.00 88 1004.0
20260831044537 75 146 4.0 10.0 0.00 0.00 0.00 88 1004.2
20260831044017 75 121 5.0 10.0 0.00 0.00 0.00 88 1004.3
20260831043524 75 140 5.0 10.0 0.00 0.00 0.00 88 1004.3
20260831043037 75 162 4.0 10.0 0.00 0.00 0.00 88 1004.5
20260831042518 76 141 3.0 9.0 0.00 0.00 0.00 88 1004.5
20260831042019 76 135 3.0 8.0 0.00 0.00 0.00 87 1004.5
20260831041552 76 134 2.0 8.0 0.00 0.00 0.00 87 1004.7
20260831041020 76 107 1.0 8.0 0.00 0.00 0.00 87 1004.7
20260831040520 76 132 3.0 9.0 0.00 0.00 0.00 87 1004.9
20260831040042 76 134 3.0 9.0 0.00 0.00 0.00 87 1004.9
20260831035517 76 133 4.0 9.0 0.00 0.00 0.00 86 1004.8
20260831035020 76 139 5.0 9.0 0.00 0.00 0.00 86 1004.9
20260831034544 76 130 3.0 8.0 0.00 0.00 0.00 86 1005.0
20260831034020 77 136 3.0 8.0 0.00 0.00 0.00 86 1005.0
20260831033519 77 134 3.0 9.0 0.00 0.00 0.00 86 1005.0
20260831033039 77 131 4.0 9.0 0.00 0.00 0.00 86 1004.8
20260831032520 77 132 3.0 9.0 0.00 0.00 0.00 86 1004.7
20260831032020 77 105 5.0 10.0 0.00 0.00 0.00 86 1004.6
20260831031535 77 134 3.0 10.0 0.00 0.00 0.00 86 1004.6
20260831031019 77 121 3.0 9.0 0.00 0.00 0.00 86 1004.6
20260831030520 77 102 1.0 7.0 0.00 0.00 0.00 86 1004.5
20260831030046 77 79 1.0 6.0 0.00 0.00 0.00 86 1004.4
20260831025521 77 132 0.0 6.0 0.00 0.00 0.00 86 1004.5
20260831025020 77 0 1.0 5.0 0.00 0.00 0.00 86 1004.5
20260831024543 77 0 0.0 3.0 0.00 0.00 0.00 86 1004.5
20260831024020 77 83 0.0 4.0 0.00 0.00 0.00 87 1004.4
20260831023520 77 132 0.0 4.0 0.00 0.00 0.00 87 1004.5
20260831023040 76 103 0.0 3.0 0.00 0.00 0.00 87 1004.4
20260831022518 76 101 0.0 4.0 0.00 0.00 0.00 88 1004.4
20260831022020 77 102 1.0 4.0 0.00 0.00 0.00 88 1004.3
20260831021536 77 82 1.0 3.0 0.00 0.00 0.00 88 1004.4
20260831021020 77 88 1.0 3.0 0.00 0.00 0.00 88 1004.3
20260831020520 77 100 1.0 5.0 0.00 0.00 0.00 87 1004.2
20260831020036 77 118 1.0 5.0 0.00 0.00 0.00 87 1004.2
20260831015519 77 113 1.0 3.0 0.00 0.00 0.00 87 1004.2
20260831015021 77 0 1.0 4.0 0.00 0.00 0.00 87 1004.2
20260831014540 77 110 1.0 4.0 0.00 0.00 0.00 87 1004.4
20260831014017 77 91 0.0 3.0 0.00 0.00 0.00 87 1004.2
20260831013518 77 0 0.0 3.0 0.00 0.00 0.00 87 1004.2
20260831013040 77 0 0.0 2.0 0.00 0.00 0.00 88 1004.2
20260831012521 77 0 0.0 2.0 0.00 0.00 0.00 88 1004.1
20260831012020 77 0 0.0 2.0 0.00 0.00 0.00 87 1004.3
20260831011539 77 0 0.0 2.0 0.00 0.00 0.00 87 1004.3
20260831011020 78 0 0.0 2.0 0.00 0.00 0.00 87 1004.4
20260831010518 78 96 0.0 2.0 0.00 0.00 0.00 87 1004.2
20260831010036 78 90 0.0 2.0 0.00 0.00 0.00 86 1004.2
20260831005517 77 0 0.0 2.0 0.00 0.00 0.00 86 1004.2
20260831005018 78 85 0.0 2.0 0.00 0.00 0.00 86 1004.2
20260831004540 78 0 0.0 2.0 0.00 0.00 0.00 86 1004.1
20260831004020 78 88 0.0 2.0 0.00 0.00 0.00 86 1004.3
20260831003518 78 0 0.0 2.0 0.00 0.00 0.00 86 1004.4
20260831003041 78 0 0.0 2.0 0.00 0.00 0.00 86 1004.3
20260831002518 78 0 0.0 2.0 0.00 0.00 0.00 85 1004.2
20260831002018 79 109 0.0 2.0 0.00 0.00 0.00 84 1004.3
20260831001538 79 137 0.0 2.0 0.00 0.00 0.00 84 1004.4
20260831001020 79 130 0.0 2.0 0.00 0.00 0.00 82 1004.5
20260831000518 79 0 0.0 1.0 0.00 0.00 0.00 82 1004.7
20260831000042 79 0 0.0 2.0 0.00 0.00 0.00 82 1004.8
20260830235518 79 0 0.0 2.0 0.00 0.00 0.00 81 1004.6
20260830235018 80 0 0.0 2.0 0.00 0.00 0.00 82 1004.6
20260830234546 80 0 0.0 5.0 0.00 0.00 0.00 81 1004.7
20260830234019 80 126 1.0 6.0 0.00 0.00 0.00 81 1004.6
20260830233518 80 125 3.0 8.0 0.00 0.00 0.00 81 1004.8
20260830233039 80 126 2.0 9.0 0.00 0.00 0.00 81 1004.5
20260830232518 80 128 3.0 9.0 0.00 0.00 0.00 81 1004.7
20260830232018 80 118 2.0 10.0 0.00 0.00 0.00 81 1004.4
20260830231541 79 123 6.0 12.0 0.00 0.00 0.00 81 1004.6
20260830231020 79 128 3.0 12.0 0.00 0.00 0.00 82 1004.7
20260830230522 79 123 1.0 4.0 0.00 0.00 0.00 82 1004.5
20260830230046 79 138 1.0 4.0 0.00 0.00 0.00 82 1004.5
20260830225518 79 101 0.0 11.0 0.00 0.00 0.00 83 1004.3
20260830225019 79 121 4.0 11.0 0.00 0.00 0.00 82 1004.4
20260830224542 79 136 1.0 6.0 0.00 0.00 0.00 83 1004.4
20260830224019 79 74 1.0 5.0 0.00 0.00 0.00 83 1004.3
20260830223520 79 74 1.0 5.0 0.00 0.00 0.00 83 1004.3
20260830223035 79 92 1.0 5.0 0.00 0.00 0.00 83 1004.1
20260830222519 79 103 1.0 4.0 0.00 0.00 0.00 84 1004.2
20260830222017 78 101 1.0 4.0 0.00 0.00 0.00 83 1004.2
20260830221540 79 96 1.0 4.0 0.00 0.00 0.00 83 1004.1
20260830221020 79 108 1.0 6.0 0.00 0.00 0.00 83 1004.1
20260830220517 79 103 2.0 6.0 0.00 0.00 0.00 82 1004.4
20260830220042 79 101 2.0 4.0 0.00 0.00 0.00 82 1004.4
20260830215520 79 108 1.0 6.0 0.00 0.00 0.00 83 1004.5
20260830215020 79 92 2.0 7.0 0.00 0.00 0.00 82 1004.7
20260830214536 79 101 2.0 9.0 0.00 0.00 0.00 81 1004.7
20260830214020 79 82 2.0 9.0 0.00 0.00 0.00 82 1004.5
20260830213517 78 91 2.0 6.0 0.00 0.00 0.00 83 1004.5
20260830213037 78 78 2.0 6.0 0.00 0.00 0.00 83 1004.4
20260830212519 78 78 2.0 9.0 0.00 0.00 0.00 83 1004.5
20260830212021 78 109 3.0 9.0 0.00 0.00 0.00 83 1004.5
20260830211538 78 112 2.0 6.0 0.00 0.00 0.00 84 1004.6
20260830211018 78 90 1.0 6.0 0.00 0.00 0.00 83 1004.7
20260830210520 78 107 2.0 6.0 0.00 0.00 0.00 83 1004.6
20260830210037 78 96 2.0 6.0 0.00 0.00 0.00 83 1004.7
20260830205523 78 82 1.0 5.0 0.00 0.00 0.00 83 1004.7
20260830205019 78 53 2.0 5.0 0.00 0.00 0.00 83 1004.7
20260830204538 78 42 2.0 4.0 0.00 0.00 0.00 83 1005.0
20260830204017 78 97 1.0 4.0 0.00 0.00 0.00 84 1005.0
20260830203518 77 107 2.0 4.0 0.00 0.00 0.00 83 1004.8
20260830203039 77 111 1.0 4.0 0.00 0.00 0.00 84 1004.9
20260830202519 77 93 1.0 4.0 0.00 0.00 0.00 85 1005.1
20260830202020 77 98 1.0 4.0 0.00 0.00 0.00 84 1005.1
20260830201542 76 115 1.0 4.0 0.00 0.00 0.00 85 1005.2
20260830201020 76 89 1.0 4.0 0.00 0.00 0.00 85 1005.2
20260830200518 76 113 1.0 4.0 0.00 0.00 0.00 85 1005.4
20260830200039 76 84 1.0 4.0 0.00 0.00 0.00 85 1005.3
20260830195518 76 92 2.0 4.0 0.00 0.00 0.00 85 1005.3
20260830195018 76 89 2.0 4.0 0.00 0.00 0.00 85 1005.4
20260830194541 75 86 2.0 4.0 0.00 0.00 0.00 85 1005.5
20260830194025 75 89 2.0 7.0 0.00 0.00 0.00 85 1005.4
20260830193517 75 90 2.0 7.0 0.00 0.00 0.00 85 1005.5
20260830193042 75 67 2.0 6.0 0.00 0.00 0.00 85 1005.3
20260830192517 75 130 2.0 7.0 0.00 0.00 0.00 85 1005.4
20260830192020 75 153 3.0 7.0 0.00 0.00 0.00 84 1005.6
20260830191537 75 26 2.0 8.0 0.00 0.00 0.00 85 1005.4
20260830191019 75 87 2.0 8.0 0.00 0.00 0.00 86 1005.4
20260830190519 74 142 2.0 7.0 0.00 0.00 0.00 87 1005.4
20260830190037 74 82 3.0 6.0 0.00 0.00 0.00 86 1005.5
20260830185518 74 85 2.0 6.0 0.00 0.00 0.00 86 1005.5
20260830185021 74 90 2.0 7.0 0.00 0.00 0.00 87 1005.7
20260830184537 73 63 2.0 7.0 0.00 0.00 0.00 88 1005.7
20260830184018 73 121 3.0 6.0 0.00 0.00 0.00 87 1005.9
20260830183516 73 63 2.0 4.0 0.00 0.00 0.00 88 1006.0
20260830183038 73 103 2.0 6.0 0.00 0.00 0.00 88 1006.2
20260830182521 72 70 2.0 7.0 0.00 0.00 0.00 88 1006.4
20260830182018 72 67 2.0 7.0 0.00 0.00 0.00 88 1006.4
20260830181541 72 103 2.0 6.0 0.00 0.00 0.00 88 1006.4
20260830181022 72 96 2.0 8.0 0.00 0.00 0.00 88 1006.6
20260830180517 72 114 3.0 8.0 0.00 0.00 0.00 88 1006.6
20260830180053 72 101 2.0 6.0 0.00 0.00 0.00 88 1006.5
20260830175518 72 113 3.0 8.0 0.00 0.00 0.00 88 1006.6
20260830175020 72 61 2.0 9.0 0.00 0.00 0.00 88 1006.7
20260830174542 72 101 3.0 9.0 0.00 0.00 0.00 88 1006.9
20260830174020 72 108 3.0 7.0 0.00 0.00 0.00 88 1006.8
20260830173522 72 83 3.0 7.0 0.00 0.00 0.00 88 1006.8
20260830173054 72 86 3.0 7.0 0.00 0.00 0.00 88 1006.8
20260830172519 72 98 3.0 7.0 0.00 0.00 0.00 89 1006.9
20260830172023 71 108 2.0 6.0 0.00 0.00 0.00 89 1006.7
20260830171541 71 133 2.0 6.0 0.00 0.00 0.00 89 1006.6
20260830171021 71 65 2.0 6.0 0.00 0.00 0.00 89 1006.8
20260830170520 71 53 2.0 8.0 0.00 0.00 0.00 89 1006.7
20260830170042 71 85 2.0 8.0 0.00 0.00 0.00 89 1006.6
20260830165521 71 42 2.0 7.0 0.00 0.00 0.00 90 1006.6
20260830165017 71 61 3.0 7.0 0.00 0.00 0.00 89 1006.7
20260830164543 71 107 2.0 7.0 0.00 0.00 0.00 89 1006.6
20260830164024 71 98 2.0 6.0 0.00 0.00 0.00 89 1006.6
20260830163520 71 85 2.0 4.0 0.00 0.00 0.00 90 1006.6
20260830163038 70 90 2.0 4.0 0.00 0.00 0.00 90 1006.6
20260830162520 70 67 2.0 4.0 0.00 0.00 0.00 90 1006.5
20260830162023 70 88 2.0 5.0 0.00 0.00 0.00 90 1006.6
20260830161537 70 88 2.0 5.0 0.00 0.00 0.00 90 1006.4
20260830161020 70 70 2.0 4.0 0.00 0.00 0.00 90 1006.5
20260830160518 70 30 2.0 7.0 0.00 0.00 0.00 90 1006.5
20260830160039 70 74 2.0 7.0 0.00 0.00 0.00 91 1006.5
20260830155519 70 79 1.0 6.0 0.00 0.00 0.00 91 1006.4
20260830155022 69 82 1.0 3.0 0.00 0.00 0.00 91 1006.4
20260830154535 69 68 1.0 4.0 0.00 0.00 0.00 91 1006.2
20260830154019 69 74 1.0 4.0 0.00 0.00 0.00 92 1006.5
20260830153518 69 86 1.0 4.0 0.00 0.00 0.00 91 1006.4
20260830153041 69 57 1.0 4.0 0.00 0.00 0.00 91 1006.3
20260830152522 68 67 1.0 4.0 0.00 0.00 0.00 91 1006.3
20260830152020 68 60 1.0 3.0 0.00 0.00 0.00 91 1006.1
20260830151538 68 0 1.0 3.0 0.00 0.00 0.00 92 1006.1
20260830151024 68 48 1.0 6.0 0.00 0.00 0.00 92 1006.3
20260830150518 68 53 1.0 6.0 0.00 0.00 0.00 92 1006.3
20260830150039 68 57 1.0 4.0 0.00 0.00 0.00 92 1006.6
20260830145518 68 105 1.0 4.0 0.00 0.00 0.00 92 1006.1
20260830145017 68 57 2.0 4.0 0.00 0.00 0.00 92 1006.5
20260830144539 68 61 1.0 3.0 0.00 0.00 0.00 92 1006.4
20260830144018 67 54 1.0 3.0 0.00 0.00 0.00 93 1006.4
20260830143523 67 126 1.0 3.0 0.00 0.00 0.00 92 1006.5
20260830143038 67 50 1.0 3.0 0.00 0.00 0.00 92 1006.8
20260830142518 67 91 1.0 3.0 0.00 0.00 0.00 92 1006.7
20260830142020 67 15 1.0 4.0 0.00 0.00 0.00 93 1006.6
20260830141549 67 74 1.0 4.0 0.00 0.00 0.00 93 1006.6
20260830141018 67 107 1.0 4.0 0.00 0.00 0.00 93 1006.8
20260830140519 67 74 1.0 4.0 0.00 0.00 0.00 93 1006.6
20260830140045 67 61 1.0 4.0 0.00 0.00 0.00 93 1006.8
20260830135524 67 61 1.0 3.0 0.00 0.00 0.00 93 1006.6
20260830135019 67 55 1.0 3.0 0.00 0.00 0.00 94 1006.9
20260830134538 67 57 1.0 3.0 0.00 0.00 0.00 93 1006.8
20260830134016 67 34 1.0 3.0 0.00 0.00 0.00 93 1006.8
20260830133522 67 51 1.0 3.0 0.00 0.00 0.00 93 1006.6
20260830133053 67 36 1.0 3.0 0.00 0.00 0.00 93 1006.4
20260830132521 67 61 1.0 3.0 0.00 0.00 0.00 93 1006.5
20260830132017 67 58 1.0 3.0 0.00 0.00 0.00 93 1006.7
20260830131538 67 58 1.0 3.0 0.00 0.00 0.00 93 1006.7
20260830131023 67 65 1.0 4.0 0.00 0.00 0.00 93 1006.5
20260830130522 67 57 1.0 4.0 0.00 0.00 0.00 93 1006.5
20260830130038 67 34 1.0 3.0 0.00 0.00 0.00 93 1006.6
20260830125517 67 59 1.0 3.0 0.00 0.00 0.00 94 1006.4
20260830125019 67 82 1.0 3.0 0.00 0.00 0.00 94 1006.4
20260830124539 67 65 1.0 4.0 0.00 0.00 0.00 94 1006.4
20260830124019 67 59 1.0 7.0 0.00 0.00 0.00 93 1006.4
20260830123522 67 34 1.0 7.0 0.00 0.00 0.00 94 1006.4
20260830123038 67 81 1.0 3.0 0.00 0.00 0.00 93 1006.4
20260830122518 67 61 1.0 3.0 0.00 0.00 0.00 93 1006.4
20260830122020 67 57 1.0 4.0 0.00 0.00 0.00 94 1006.4
20260830121538 67 84 1.0 4.0 0.00 0.00 0.00 94 1006.4
20260830121021 67 75 1.0 4.0 0.00 0.00 0.00 94 1006.0
20260830120517 67 65 2.0 4.0 0.00 0.00 0.00 94 1006.1
20260830120035 67 73 1.0 4.0 0.00 0.00 0.00 94 1006.1
20260830115519 67 90 1.0 4.0 0.00 0.00 0.00 94 1006.2
20260830115017 67 0 1.0 3.0 0.00 0.00 0.00 93 1006.4
20260830114553 67 56 1.0 3.0 0.00 0.00 0.00 93 1006.3
20260830114018 67 56 1.0 3.0 0.00 0.00 0.00 94 1006.0
20260830113518 67 75 1.0 3.0 0.00 0.00 0.00 93 1006.1
20260830113037 67 83 1.0 3.0 0.00 0.00 0.00 94 1005.9
20260830112520 67 67 1.0 3.0 0.00 0.00 0.00 94 1006.0
20260830112018 67 0 1.0 3.0 0.00 0.00 0.00 94 1006.1
20260830111539 67 69 0.0 2.0 0.00 0.00 0.00 93 1006.2
20260830111020 67 59 0.0 3.0 0.00 0.00 0.00 93 1006.2
20260830110520 67 59 1.0 4.0 0.00 0.00 0.00 93 1006.0
20260830110036 67 67 0.0 4.0 0.00 0.00 0.00 94 1005.7
20260830105518 67 72 1.0 4.0 0.00 0.00 0.00 93 1005.4
20260830105019 67 57 1.0 4.0 0.00 0.00 0.00 93 1005.5
20260830104544 67 55 1.0 4.0 0.00 0.00 0.00 93 1005.7
20260830104018 67 69 1.0 3.0 0.00 0.00 0.00 93 1006.1
20260830103520 67 69 1.0 4.0 0.00 0.00 0.00 93 1006.1
20260830103037 67 74 1.0 4.0 0.00 0.00 0.00 93 1006.1
20260830102522 67 68 0.0 3.0 0.00 0.00 0.00 93 1006.4
20260830102019 67 59 1.0 3.0 0.00 0.00 0.00 93 1006.2
20260830101537 67 77 0.0 3.0 0.00 0.00 0.00 93 1006.5
20260830101018 67 111 0.0 3.0 0.00 0.00 0.00 93 1006.4
20260830100520 67 71 0.0 3.0 0.00 0.00 0.00 93 1006.4
20260830100036 67 65 0.0 3.0 0.00 0.00 0.00 93 1006.5
20260830095518 67 73 1.0 3.0 0.00 0.04 0.00 93 1006.4
20260830095017 67 33 0.0 3.0 0.00 0.04 0.00 93 1006.3
20260830094537 67 0 0.0 3.0 0.00 0.04 0.00 93 1006.4
20260830094020 67 86 1.0 4.0 0.00 0.04 0.00 93 1006.2
20260830093517 67 102 1.0 4.0 0.00 0.04 0.00 93 1006.3
20260830093035 67 78 1.0 4.0 0.00 0.04 0.00 93 1006.3
20260830092520 67 102 0.0 4.0 0.00 0.04 0.00 92 1006.2
20260830092022 67 86 0.0 3.0 0.00 0.04 0.00 92 1006.3
20260830091536 67 0 0.0 2.0 0.00 0.04 0.00 93 1006.1
20260830091017 67 0 0.0 2.0 0.00 0.04 0.00 93 1006.1
20260830090517 67 0 0.0 2.0 0.00 0.04 0.00 92 1006.2
20260830090055 67 0 0.0 2.0 0.00 0.04 0.00 92 1006.1
20260830085520 67 0 1.0 3.0 0.00 0.08 0.00 92 1005.9
20260830085020 67 67 0.0 3.0 0.00 0.08 0.00 92 1006.0
20260830084543 68 53 0.0 3.0 0.00 0.08 0.00 92 1006.1
20260830084018 68 0 0.0 3.0 0.00 0.08 0.00 93 1006.1
20260830083517 68 90 0.0 3.0 0.00 0.08 0.00 92 1006.3
20260830083040 68 103 0.0 3.0 0.00 0.08 0.00 92 1006.1
20260830082520 68 88 1.0 3.0 0.00 0.08 0.00 92 1006.2
20260830082018 68 90 1.0 3.0 0.00 0.08 0.00 92 1006.1
20260830081542 68 60 1.0 3.0 0.00 0.08 0.00 92 1005.9
20260830081020 68 29 0.0 4.0 0.00 0.08 0.00 92 1005.9
20260830080520 68 0 0.0 4.0 0.00 0.08 0.00 92 1006.2
20260830080038 68 0 1.0 3.0 0.00 0.08 0.00 92 1006.2
20260830075520 68 86 1.0 3.0 0.00 0.10 0.00 92 1006.2
20260830075020 68 61 1.0 3.0 0.00 0.10 0.00 92 1006.1
20260830074545 68 58 1.0 3.0 0.00 0.10 0.00 92 1006.2
20260830074019 68 69 1.0 3.0 0.00 0.10 0.00 92 1006.5
20260830073518 68 76 1.0 3.0 0.00 0.10 0.00 92 1006.6
20260830073103 68 83 0.0 2.0 0.00 0.10 0.00 91 1006.4
20260830072521 68 82 0.0 3.0 0.00 0.10 0.00 91 1006.5
20260830072019 68 82 1.0 3.0 0.00 0.10 0.00 91 1006.7
20260830071542 68 93 1.0 4.0 0.00 0.10 0.00 91 1006.9
20260830071020 68 44 1.0 4.0 0.00 0.10 0.00 91 1006.8
20260830070520 69 82 0.0 3.0 0.00 0.10 0.00 91 1006.9
20260830070040 69 86 1.0 3.0 0.00 0.10 0.00 91 1007.1
20260830065518 69 51 1.0 3.0 0.00 0.10 0.00 91 1007.0
20260830065025 69 94 1.0 3.0 0.00 0.10 0.00 91 1007.1
20260830064538 69 0 1.0 3.0 0.00 0.10 0.00 91 1006.9
20260830064023 69 82 1.0 3.0 0.00 0.10 0.00 91 1006.8
20260830063518 69 92 1.0 3.0 0.00 0.10 0.00 91 1006.9
20260830063040 69 64 1.0 3.0 0.00 0.10 0.00 91 1007.0
20260830062518 69 63 1.0 3.0 0.00 0.10 0.00 91 1007.1
20260830062017 69 74 0.0 2.0 0.00 0.10 0.00 90 1007.1
20260830061543 69 64 0.0 2.0 0.00 0.10 0.00 90 1007.0
20260830061021 69 0 1.0 3.0 0.00 0.10 0.00 90 1006.9
20260830060519 69 72 1.0 3.0 0.00 0.10 0.00 90 1006.8
20260830060039 69 33 1.0 3.0 0.00 0.10 0.00 90 1006.7
20260830055520 69 57 1.0 3.0 0.00 0.10 0.00 90 1006.9
20260830055018 69 96 1.0 4.0 0.00 0.10 0.00 90 1006.7
20260830054538 69 46 1.0 4.0 0.00 0.10 0.00 90 1006.8
20260830054017 70 80 1.0 3.0 0.00 0.10 0.00 90 1006.8
20260830053521 70 131 1.0 3.0 0.00 0.10 0.00 90 1006.9
20260830053040 70 75 1.0 3.0 0.00 0.10 0.00 89 1007.0